Time,TemperatureF,DewpointF,PressureIn,WindDirection,WindDirectionDegrees,WindSpeedMPH,WindSpeedGustMPH,Humidity,HourlyPrecipIn,Conditions,Clouds,dailyrainin,SoftwareType,DateUTC
2013-01-19 00:01:00,50.2,23.5,29.60,SSW,205,0.0,4.0,35,0.00,,,0.00,meteohub,2013-01-19 06:01:00,
2013-01-19 00:06:00,50.2,23.5,29.60,SW,234,0.0,4.0,35,0.00,,,0.00,meteohub,2013-01-19 06:06:00,
2013-01-19 00:11:00,50.2,23.5,29.60,South,182,2.0,4.0,35,0.00,,,0.00,meteohub,2013-01-19 06:11:00,
2013-01-19 00:16:00,50.2,23.5,29.60,South,187,0.0,5.0,35,0.00,,,0.00,meteohub,2013-01-19 06:16:00,
2013-01-19 00:21:00,50.2,23.5,29.60,SW,231,0.0,5.0,35,0.00,,,0.00,meteohub,2013-01-19 06:21:00,
2013-01-19 00:26:00,50.4,23.0,29.60,South,189,2.0,5.0,34,0.00,,,0.00,meteohub,2013-01-19 06:26:00,
2013-01-19 00:32:00,50.4,23.0,29.60,SW,225,3.0,4.0,34,0.00,,,0.00,meteohub,2013-01-19 06:32:00,
2013-01-19 00:37:00,50.4,23.0,29.60,SW,219,4.0,4.0,34,0.00,,,0.00,meteohub,2013-01-19 06:37:00,
2013-01-19 00:42:00,50.5,23.2,29.60,WSW,239,0.0,4.0,34,0.00,,,0.00,meteohub,2013-01-19 06:42:00,
2013-01-19 00:47:00,50.5,23.2,29.60,SSW,195,0.0,4.0,34,0.00,,,0.00,meteohub,2013-01-19 06:47:00,
2013-01-19 00:52:00,50.5,23.2,29.60,SW,216,0.0,5.0,34,0.00,,,0.00,meteohub,2013-01-19 06:52:00,
2013-01-19 00:57:00,50.5,23.2,29.60,SW,235,3.0,6.0,34,0.00,,,0.00,meteohub,2013-01-19 06:57:00,
2013-01-19 01:02:00,50.4,23.0,29.60,SW,221,4.0,6.0,34,0.00,,,0.00,meteohub,2013-01-19 07:02:00,
2013-01-19 01:07:00,50.4,23.0,29.60,SW,230,3.0,5.0,34,0.00,,,0.00,meteohub,2013-01-19 07:07:00,
2013-01-19 01:12:00,50.2,23.5,29.60,WSW,237,3.0,5.0,35,0.00,,,0.00,meteohub,2013-01-19 07:12:00,
2013-01-19 01:17:00,50.2,23.5,29.60,SW,222,4.0,5.0,35,0.00,,,0.00,meteohub,2013-01-19 07:17:00,
2013-01-19 01:22:00,49.8,23.9,29.60,WSW,238,8.0,8.0,36,0.00,,,0.00,meteohub,2013-01-19 07:22:00,
2013-01-19 01:27:00,49.5,23.5,29.60,SW,218,0.0,8.0,36,0.00,,,0.00,meteohub,2013-01-19 07:27:00,
2013-01-19 01:32:00,49.3,24.1,29.60,SSE,159,2.0,8.0,37,0.00,,,0.00,meteohub,2013-01-19 07:32:00,
2013-01-19 01:37:00,48.9,23.7,29.60,SW,226,2.0,8.0,37,0.00,,,0.00,meteohub,2013-01-19 07:37:00,
2013-01-19 01:42:00,48.7,23.5,29.60,South,190,3.0,8.0,37,0.00,,,0.00,meteohub,2013-01-19 07:42:00,
2013-01-19 01:47:00,48.6,23.5,29.60,SW,234,3.0,6.0,37,0.00,,,0.00,meteohub,2013-01-19 07:47:00,
2013-01-19 01:52:00,48.4,23.4,29.60,WSW,243,3.0,6.0,37,0.00,,,0.00,meteohub,2013-01-19 07:52:00,
2013-01-19 01:57:00,48.2,23.2,29.60,SW,232,0.0,6.0,37,0.00,,,0.00,meteohub,2013-01-19 07:57:00,
2013-01-19 02:02:00,48.2,23.2,29.60,West,267,3.0,5.0,37,0.00,,,0.00,meteohub,2013-01-19 08:02:00,
2013-01-19 02:07:00,48.0,23.5,29.60,SSW,198,2.0,5.0,38,0.00,,,0.00,meteohub,2013-01-19 08:07:00,
2013-01-19 02:13:00,47.8,23.5,29.60,SSW,212,0.0,5.0,38,0.00,,,0.00,meteohub,2013-01-19 08:13:00,
2013-01-19 02:18:00,47.8,23.5,29.60,SW,227,3.0,4.0,38,0.00,,,0.00,meteohub,2013-01-19 08:18:00,
2013-01-19 02:23:00,47.7,23.4,29.60,SW,227,0.0,4.0,38,0.00,,,0.00,meteohub,2013-01-19 08:23:00,
2013-01-19 02:28:00,47.5,23.7,29.60,SW,222,0.0,4.0,39,0.00,,,0.00,meteohub,2013-01-19 08:28:00,
2013-01-19 02:33:00,47.3,23.5,29.60,SW,222,0.0,4.0,39,0.00,,,0.00,meteohub,2013-01-19 08:33:00,
2013-01-19 02:38:00,47.3,23.5,29.60,SW,222,0.0,0.0,39,0.00,,,0.00,meteohub,2013-01-19 08:38:00,
2013-01-19 02:43:00,47.1,23.4,29.60,SW,233,0.0,0.0,39,0.00,,,0.00,meteohub,2013-01-19 08:43:00,
2013-01-19 02:48:00,46.9,23.2,29.60,SW,219,0.0,0.0,39,0.00,,,0.00,meteohub,2013-01-19 08:48:00,
2013-01-19 02:53:00,46.8,23.2,29.60,SW,219,0.0,0.0,39,0.00,,,0.00,meteohub,2013-01-19 08:53:00,
2013-01-19 02:58:00,46.6,23.0,29.60,SW,214,2.0,0.0,39,0.00,,,0.00,meteohub,2013-01-19 08:58:00,
2013-01-19 03:04:00,46.6,23.5,29.60,SSW,205,0.0,0.0,40,0.00,,,0.00,meteohub,2013-01-19 09:04:00,
2013-01-19 03:09:00,46.6,23.5,29.60,SW,215,4.0,4.0,40,0.00,,,0.00,meteohub,2013-01-19 09:09:00,
2013-01-19 03:14:00,46.6,24.1,29.60,SW,224,0.0,6.0,41,0.00,,,0.00,meteohub,2013-01-19 09:14:00,
2013-01-19 03:19:00,46.6,24.1,29.60,SW,227,3.0,6.0,41,0.00,,,0.00,meteohub,2013-01-19 09:19:00,
2013-01-19 03:24:00,46.8,24.3,29.60,SW,228,4.0,4.0,41,0.00,,,0.00,meteohub,2013-01-19 09:24:00,
2013-01-19 03:29:00,46.8,24.3,29.57,West,267,3.0,4.0,41,0.00,,,0.00,meteohub,2013-01-19 09:29:00,
2013-01-19 03:34:00,46.8,24.3,29.57,WSW,239,2.0,4.0,41,0.00,,,0.00,meteohub,2013-01-19 09:34:00,
2013-01-19 03:39:00,46.8,24.3,29.57,SSW,207,0.0,4.0,41,0.00,,,0.00,meteohub,2013-01-19 09:39:00,
2013-01-19 03:45:00,46.6,24.1,29.57,SW,217,3.0,4.0,41,0.00,,,0.00,meteohub,2013-01-19 09:45:00,
2013-01-19 03:50:00,46.6,24.1,29.57,SW,222,0.0,4.0,41,0.00,,,0.00,meteohub,2013-01-19 09:50:00,
2013-01-19 03:55:00,46.6,24.1,29.57,SSW,210,0.0,4.0,41,0.00,,,0.00,meteohub,2013-01-19 09:55:00,
2013-01-19 04:00:00,46.4,23.9,29.57,SSW,211,0.0,4.0,41,0.00,,,0.00,meteohub,2013-01-19 10:00:00,
2013-01-19 04:05:00,46.4,23.9,29.57,SSW,205,0.0,4.0,41,0.00,,,0.00,meteohub,2013-01-19 10:05:00,
2013-01-19 04:10:00,46.2,23.9,29.57,SSW,205,0.0,4.0,41,0.00,,,0.00,meteohub,2013-01-19 10:10:00,
2013-01-19 04:15:00,46.0,23.7,29.57,SW,222,0.0,3.0,41,0.00,,,0.00,meteohub,2013-01-19 10:15:00,
2013-01-19 04:20:00,46.0,24.3,29.57,SW,220,0.0,3.0,42,0.00,,,0.00,meteohub,2013-01-19 10:20:00,
2013-01-19 04:25:00,45.9,24.1,29.57,SW,220,0.0,3.0,42,0.00,,,0.00,meteohub,2013-01-19 10:25:00,
2013-01-19 04:31:00,45.7,23.9,29.57,SW,220,0.0,3.0,42,0.00,,,0.00,meteohub,2013-01-19 10:31:00,
2013-01-19 04:36:00,45.5,23.7,29.57,SW,220,0.0,0.0,42,0.00,,,0.00,meteohub,2013-01-19 10:36:00,
2013-01-19 04:41:00,45.1,23.4,29.57,SW,220,0.0,0.0,42,0.00,,,0.00,meteohub,2013-01-19 10:41:00,
2013-01-19 04:46:00,45.0,23.2,29.57,SW,220,0.0,0.0,42,0.00,,,0.00,meteohub,2013-01-19 10:46:00,
2013-01-19 04:52:00,44.8,23.7,29.57,SW,214,0.0,0.0,43,0.00,,,0.00,meteohub,2013-01-19 10:52:00,
2013-01-19 04:57:00,44.8,23.7,29.57,SSW,212,0.0,0.0,43,0.00,,,0.00,meteohub,2013-01-19 10:57:00,
2013-01-19 05:02:00,44.8,24.3,29.57,South,185,0.0,0.0,44,0.00,,,0.00,meteohub,2013-01-19 11:02:00,
2013-01-19 05:07:00,44.6,24.1,29.57,South,186,0.0,3.0,44,0.00,,,0.00,meteohub,2013-01-19 11:07:00,
2013-01-19 05:12:00,44.4,23.9,29.57,South,186,0.0,3.0,44,0.00,,,0.00,meteohub,2013-01-19 11:12:00,
2013-01-19 06:47:00,41.7,26.2,29.57,South,186,0.0,0.0,54,0.00,,,0.00,meteohub,2013-01-19 12:47:00,
2013-01-19 06:48:00,41.7,26.8,29.57,South,186,0.0,0.0,55,0.00,,,0.00,meteohub,2013-01-19 12:48:00,
2013-01-19 06:50:00,41.7,26.8,29.57,South,186,0.0,0.0,55,0.00,,,0.00,meteohub,2013-01-19 12:50:00,
2013-01-19 06:51:00,41.5,26.6,29.57,South,186,0.0,0.0,55,0.00,,,0.00,meteohub,2013-01-19 12:51:00,
2013-01-19 06:57:00,41.5,27.0,29.57,South,186,0.0,0.0,56,0.00,,,0.00,meteohub,2013-01-19 12:57:00,
2013-01-19 07:02:00,41.5,27.5,29.57,South,186,0.0,0.0,57,0.00,,,0.00,meteohub,2013-01-19 13:02:00,
2013-01-19 07:07:00,41.5,27.9,29.57,South,186,0.0,0.0,58,0.00,,,0.00,meteohub,2013-01-19 13:07:00,
2013-01-19 07:12:00,41.4,28.0,29.57,South,186,0.0,0.0,59,0.00,,,0.00,meteohub,2013-01-19 13:12:00,
2013-01-19 07:17:00,41.4,28.0,29.57,South,186,0.0,0.0,59,0.00,,,0.00,meteohub,2013-01-19 13:17:00,
2013-01-19 07:22:00,41.2,27.9,29.57,South,187,0.0,0.0,59,0.00,,,0.00,meteohub,2013-01-19 13:22:00,
2013-01-19 07:27:00,41.0,27.9,29.57,South,187,0.0,0.0,59,0.00,,,0.00,meteohub,2013-01-19 13:27:00,
2013-01-19 07:32:00,40.8,28.0,29.57,South,187,0.0,0.0,60,0.00,,,0.00,meteohub,2013-01-19 13:32:00,
2013-01-19 07:37:00,40.8,28.0,29.57,South,187,0.0,0.0,60,0.00,,,0.00,meteohub,2013-01-19 13:37:00,
2013-01-19 07:43:00,40.8,28.0,29.57,South,187,0.0,0.0,60,0.00,,,0.00,meteohub,2013-01-19 13:43:00,
2013-01-19 07:48:00,40.8,28.4,29.57,South,187,0.0,0.0,61,0.00,,,0.00,meteohub,2013-01-19 13:48:00,
2013-01-19 07:53:00,40.8,28.4,29.57,South,187,0.0,0.0,61,0.00,,,0.00,meteohub,2013-01-19 13:53:00,
2013-01-19 07:58:00,40.8,28.4,29.60,South,187,0.0,0.0,61,0.00,,,0.00,meteohub,2013-01-19 13:58:00,
2013-01-19 08:03:00,40.6,28.2,29.60,South,187,0.0,0.0,61,0.00,,,0.00,meteohub,2013-01-19 14:03:00,
2013-01-19 08:08:00,40.8,28.8,29.60,South,187,0.0,0.0,62,0.00,,,0.00,meteohub,2013-01-19 14:08:00,
2013-01-19 08:14:00,41.2,29.1,29.60,South,187,0.0,0.0,62,0.00,,,0.00,meteohub,2013-01-19 14:14:00,
2013-01-19 08:19:00,41.7,29.7,29.60,South,187,0.0,0.0,62,0.00,,,0.00,meteohub,2013-01-19 14:19:00,
2013-01-19 08:24:00,42.4,30.7,29.60,SW,218,0.0,0.0,63,0.00,,,0.00,meteohub,2013-01-19 14:24:00,
2013-01-19 08:29:00,43.0,31.3,29.60,SW,214,3.0,0.0,63,0.00,,,0.00,meteohub,2013-01-19 14:29:00,
2013-01-19 08:34:00,43.5,31.3,29.60,SW,235,0.0,4.0,62,0.00,,,0.00,meteohub,2013-01-19 14:34:00,
2013-01-19 08:40:00,44.1,31.1,29.60,SSW,192,3.0,4.0,60,0.00,,,0.00,meteohub,2013-01-19 14:40:00,
2013-01-19 08:45:00,44.6,30.7,29.60,SW,230,3.0,4.0,58,0.00,,,0.00,meteohub,2013-01-19 14:45:00,
2013-01-19 08:50:00,45.1,30.4,29.60,South,184,4.0,5.0,56,0.00,,,0.00,meteohub,2013-01-19 14:50:00,
2013-01-19 08:55:00,45.5,30.2,29.60,South,185,3.0,5.0,55,0.00,,,0.00,meteohub,2013-01-19 14:55:00,
2013-01-19 09:00:00,45.9,29.7,29.60,WSW,238,0.0,5.0,53,0.00,,,0.00,meteohub,2013-01-19 15:00:00,
2013-01-19 09:05:00,46.2,30.0,29.60,SW,230,0.0,5.0,53,0.00,,,0.00,meteohub,2013-01-19 15:05:00,
2013-01-19 09:11:00,46.8,30.0,29.60,SSW,205,4.0,5.0,52,0.00,,,0.00,meteohub,2013-01-19 15:11:00,
2013-01-19 09:16:00,47.3,30.0,29.60,SW,223,2.0,5.0,51,0.00,,,0.00,meteohub,2013-01-19 15:16:00,
2013-01-19 09:21:00,47.7,30.0,29.60,SSW,200,0.0,5.0,50,0.00,,,0.00,meteohub,2013-01-19 15:21:00,
2013-01-19 09:26:00,47.8,30.0,29.60,WSW,242,0.0,4.0,50,0.00,,,0.00,meteohub,2013-01-19 15:26:00,
2013-01-19 09:31:00,48.2,30.0,29.60,SSW,210,4.0,6.0,49,0.00,,,0.00,meteohub,2013-01-19 15:31:00,
2013-01-19 09:36:00,48.6,29.8,29.60,WSW,246,0.0,6.0,48,0.00,,,0.00,meteohub,2013-01-19 15:36:00,
2013-01-19 09:41:00,49.1,30.7,29.60,SW,233,0.0,6.0,49,0.00,,,0.00,meteohub,2013-01-19 15:41:00,
2013-01-19 09:47:00,49.8,30.9,29.60,SSW,212,0.0,4.0,48,0.00,,,0.00,meteohub,2013-01-19 15:47:00,
2013-01-19 09:52:00,50.4,30.4,29.60,SW,234,0.0,4.0,46,0.00,,,0.00,meteohub,2013-01-19 15:52:00,
2013-01-19 09:57:00,50.7,30.7,29.60,WSW,238,3.0,5.0,46,0.00,,,0.00,meteohub,2013-01-19 15:57:00,
2013-01-19 10:02:00,50.9,29.8,29.60,SW,235,2.0,6.0,44,0.00,,,0.00,meteohub,2013-01-19 16:02:00,
2013-01-19 10:07:00,51.3,30.6,29.60,WSW,249,5.0,6.0,45,0.00,,,0.00,meteohub,2013-01-19 16:07:00,
2013-01-19 10:12:00,51.8,30.6,29.60,WSW,242,3.0,7.0,44,0.00,,,0.00,meteohub,2013-01-19 16:12:00,
2013-01-19 10:17:00,52.3,30.6,29.60,WNW,287,4.0,7.0,43,0.00,,,0.00,meteohub,2013-01-19 16:17:00,
2013-01-19 10:22:00,53.1,30.6,29.60,SW,225,3.0,7.0,42,0.00,,,0.00,meteohub,2013-01-19 16:22:00,
2013-01-19 10:27:00,53.8,30.6,29.60,WSW,237,3.0,6.0,41,0.00,,,0.00,meteohub,2013-01-19 16:27:00,
2013-01-19 10:32:00,54.5,30.7,29.60,SW,226,2.0,6.0,40,0.00,,,0.00,meteohub,2013-01-19 16:32:00,
2013-01-19 10:37:00,55.4,31.5,29.60,SSE,167,2.0,6.0,40,0.00,,,0.00,meteohub,2013-01-19 16:37:00,
2013-01-19 10:42:00,56.3,31.1,29.60,West,266,4.0,6.0,38,0.00,,,0.00,meteohub,2013-01-19 16:42:00,
2013-01-19 10:48:00,57.2,31.1,29.60,SSW,201,5.0,6.0,37,0.00,,,0.00,meteohub,2013-01-19 16:48:00,
2013-01-19 10:53:00,57.9,31.8,29.60,SW,235,5.0,6.0,37,0.00,,,0.00,meteohub,2013-01-19 16:53:00,
2013-01-19 10:58:00,58.8,32.0,29.60,WNW,295,4.0,6.0,36,0.00,,,0.00,meteohub,2013-01-19 16:58:00,
2013-01-19 11:03:00,59.2,31.5,29.60,SW,229,6.0,7.0,35,0.00,,,0.00,meteohub,2013-01-19 17:03:00,
2013-01-19 11:08:00,59.4,31.6,29.60,SW,229,4.0,8.0,35,0.00,,,0.00,meteohub,2013-01-19 17:08:00,
2013-01-19 11:13:00,59.5,31.8,29.60,West,265,4.0,8.0,35,0.00,,,0.00,meteohub,2013-01-19 17:13:00,
2013-01-19 11:19:00,59.7,32.0,29.60,SSW,203,5.0,8.0,35,0.00,,,0.00,meteohub,2013-01-19 17:19:00,
2013-01-19 11:25:00,60.1,31.6,29.60,WSW,237,5.0,12.0,34,0.00,,,0.00,meteohub,2013-01-19 17:25:00,
2013-01-19 11:30:00,60.3,31.8,29.57,WSW,253,4.0,12.0,34,0.00,,,0.00,meteohub,2013-01-19 17:30:00,
2013-01-19 11:35:00,60.6,32.2,29.57,SE,145,2.0,8.0,34,0.00,,,0.00,meteohub,2013-01-19 17:35:00,
2013-01-19 11:41:00,60.8,31.5,29.57,West,267,4.0,8.0,33,0.00,,,0.00,meteohub,2013-01-19 17:41:00,
2013-01-19 11:47:00,60.8,30.7,29.57,WSW,243,4.0,8.0,32,0.00,,,0.00,meteohub,2013-01-19 17:47:00,
2013-01-19 11:52:00,61.0,30.9,29.57,SE,134,4.0,8.0,32,0.00,,,0.00,meteohub,2013-01-19 17:52:00,
2013-01-19 11:57:00,61.3,30.4,29.57,West,265,3.0,8.0,31,0.00,,,0.00,meteohub,2013-01-19 17:57:00,
2013-01-19 12:02:00,61.7,30.0,29.57,SW,220,4.0,8.0,30,0.00,,,0.00,meteohub,2013-01-19 18:02:00,
2013-01-19 12:07:00,61.7,30.0,29.57,SW,233,6.0,9.0,30,0.00,,,0.00,meteohub,2013-01-19 18:07:00,
2013-01-19 12:12:00,61.9,30.0,29.57,SW,221,3.0,9.0,30,0.00,,,0.00,meteohub,2013-01-19 18:12:00,
2013-01-19 12:18:00,62.2,30.4,29.57,WSW,249,0.0,6.0,30,0.00,,,0.00,meteohub,2013-01-19 18:18:00,
2013-01-19 12:23:00,62.6,29.8,29.57,SW,233,0.0,6.0,29,0.00,,,0.00,meteohub,2013-01-19 18:23:00,
2013-01-19 12:28:00,62.6,29.1,29.54,SW,229,3.0,6.0,28,0.00,,,0.00,meteohub,2013-01-19 18:28:00,
2013-01-19 12:34:00,62.6,29.8,29.54,SW,225,4.0,8.0,29,0.00,,,0.00,meteohub,2013-01-19 18:34:00,
2013-01-19 12:39:00,62.6,29.1,29.54,WNW,291,2.0,8.0,28,0.00,,,0.00,meteohub,2013-01-19 18:39:00,
2013-01-19 12:44:00,62.6,29.8,29.54,West,274,4.0,8.0,29,0.00,,,0.00,meteohub,2013-01-19 18:44:00,
2013-01-19 12:49:00,62.8,29.1,29.54,WSW,242,2.0,8.0,28,0.00,,,0.00,meteohub,2013-01-19 18:49:00,
2013-01-19 12:54:00,63.0,29.3,29.54,WSW,244,4.0,8.0,28,0.00,,,0.00,meteohub,2013-01-19 18:54:00,
2013-01-19 13:01:00,63.3,29.7,29.51,WSW,245,4.0,10.0,28,0.00,,,0.00,meteohub,2013-01-19 19:01:00,
2013-01-19 13:07:00,63.5,29.8,29.51,WSW,257,0.0,8.0,28,0.00,,,0.00,meteohub,2013-01-19 19:07:00,
2013-01-19 13:12:00,63.7,30.0,29.51,WSW,244,3.0,8.0,28,0.00,,,0.00,meteohub,2013-01-19 19:12:00,
2013-01-19 13:17:00,63.7,29.1,29.51,WSW,250,4.0,8.0,27,0.00,,,0.00,meteohub,2013-01-19 19:17:00,
2013-01-19 13:23:00,63.9,30.2,29.51,WSW,238,0.0,8.0,28,0.00,,,0.00,meteohub,2013-01-19 19:23:00,
2013-01-19 13:29:00,64.2,29.5,29.51,WSW,237,3.0,6.0,27,0.00,,,0.00,meteohub,2013-01-19 19:29:00,
2013-01-19 13:34:00,64.4,29.7,29.51,SSW,195,4.0,6.0,27,0.00,,,0.00,meteohub,2013-01-19 19:34:00,
2013-01-19 13:39:00,64.8,30.0,29.51,SW,223,0.0,8.0,27,0.00,,,0.00,meteohub,2013-01-19 19:39:00,
2013-01-19 13:45:00,64.9,30.2,29.51,WSW,252,4.0,8.0,27,0.00,,,0.00,meteohub,2013-01-19 19:45:00,
2013-01-19 13:50:00,65.3,30.4,29.51,SSW,209,3.0,6.0,27,0.00,,,0.00,meteohub,2013-01-19 19:50:00,
2013-01-19 13:55:00,65.5,30.6,29.51,West,275,4.0,6.0,27,0.00,,,0.00,meteohub,2013-01-19 19:55:00,
2013-01-19 14:01:00,65.7,30.7,29.48,WSW,243,4.0,5.0,27,0.00,,,0.00,meteohub,2013-01-19 20:01:00,
2013-01-19 14:06:00,65.8,30.9,29.48,WSW,256,0.0,6.0,27,0.00,,,0.00,meteohub,2013-01-19 20:06:00,
2013-01-19 14:12:00,66.4,30.4,29.48,SW,235,0.0,6.0,26,0.00,,,0.00,meteohub,2013-01-19 20:12:00,
2013-01-19 14:17:00,66.7,30.7,29.48,SSW,208,2.0,6.0,26,0.00,,,0.00,meteohub,2013-01-19 20:17:00,
2013-01-19 14:22:00,66.9,30.0,29.48,SW,234,0.0,5.0,25,0.00,,,0.00,meteohub,2013-01-19 20:22:00,
2013-01-19 14:27:00,67.3,30.2,29.48,West,277,0.0,5.0,25,0.00,,,0.00,meteohub,2013-01-19 20:27:00,
2013-01-19 14:32:00,67.3,30.2,29.48,SW,228,3.0,5.0,25,0.00,,,0.00,meteohub,2013-01-19 20:32:00,
2013-01-19 14:37:00,67.1,30.0,29.48,West,281,3.0,6.0,25,0.00,,,0.00,meteohub,2013-01-19 20:37:00,
2013-01-19 14:43:00,67.3,29.3,29.48,South,171,4.0,8.0,24,0.00,,,0.00,meteohub,2013-01-19 20:43:00,
2013-01-19 14:48:00,67.5,29.5,29.48,SW,217,0.0,8.0,24,0.00,,,0.00,meteohub,2013-01-19 20:48:00,
2013-01-19 14:53:00,67.8,29.7,29.48,SW,218,4.0,8.0,24,0.00,,,0.00,meteohub,2013-01-19 20:53:00,
2013-01-19 14:58:00,67.8,29.7,29.48,SW,226,2.0,6.0,24,0.00,,,0.00,meteohub,2013-01-19 20:58:00,
2013-01-19 15:03:00,67.8,29.7,29.48,South,180,3.0,6.0,24,0.00,,,0.00,meteohub,2013-01-19 21:03:00,
2013-01-19 15:09:00,67.3,29.3,29.48,SW,230,0.0,6.0,24,0.00,,,0.00,meteohub,2013-01-19 21:09:00,
2013-01-19 15:14:00,66.9,28.9,29.48,South,169,5.0,5.0,24,0.00,,,0.00,meteohub,2013-01-19 21:14:00,
2013-01-19 15:19:00,66.6,28.6,29.48,SSW,212,0.0,5.0,24,0.00,,,0.00,meteohub,2013-01-19 21:19:00,
2013-01-19 15:25:00,66.4,28.4,29.48,West,266,3.0,6.0,24,0.00,,,0.00,meteohub,2013-01-19 21:25:00,
2013-01-19 15:30:00,66.6,28.6,29.48,WSW,239,4.0,6.0,24,0.00,,,0.00,meteohub,2013-01-19 21:30:00,
2013-01-19 15:36:00,66.6,28.6,29.48,SSW,207,0.0,6.0,24,0.00,,,0.00,meteohub,2013-01-19 21:36:00,
2013-01-19 15:42:00,66.7,28.8,29.48,SW,234,3.0,6.0,24,0.00,,,0.00,meteohub,2013-01-19 21:42:00,
2013-01-19 15:47:00,66.7,28.8,29.48,SW,226,0.0,5.0,24,0.00,,,0.00,meteohub,2013-01-19 21:47:00,
2013-01-19 15:52:00,66.6,29.7,29.48,WSW,237,3.0,5.0,25,0.00,,,0.00,meteohub,2013-01-19 21:52:00,
2013-01-19 15:57:00,66.4,29.5,29.48,WSW,258,2.0,4.0,25,0.00,,,0.00,meteohub,2013-01-19 21:57:00,
2013-01-19 16:02:00,66.0,29.1,29.48,WSW,256,5.0,5.0,25,0.00,,,0.00,meteohub,2013-01-19 22:02:00,
2013-01-19 16:07:00,65.7,28.9,29.48,SW,235,0.0,6.0,25,0.00,,,0.00,meteohub,2013-01-19 22:07:00,
2013-01-19 16:12:00,65.5,28.8,29.48,SSW,208,0.0,6.0,25,0.00,,,0.00,meteohub,2013-01-19 22:12:00,
2013-01-19 16:18:00,65.3,28.6,29.48,WSW,244,4.0,6.0,25,0.00,,,0.00,meteohub,2013-01-19 22:18:00,
2013-01-19 16:23:00,65.3,29.5,29.48,ESE,103,0.0,4.0,26,0.00,,,0.00,meteohub,2013-01-19 22:23:00,
2013-01-19 16:28:00,65.3,29.5,29.48,SW,232,0.0,7.0,26,0.00,,,0.00,meteohub,2013-01-19 22:28:00,
2013-01-19 16:34:00,65.5,29.7,29.48,SSW,211,3.0,7.0,26,0.00,,,0.00,meteohub,2013-01-19 22:34:00,
2013-01-19 16:39:00,65.7,30.7,29.48,SW,230,6.0,6.0,27,0.00,,,0.00,meteohub,2013-01-19 22:39:00,
2013-01-19 16:45:00,65.5,30.6,29.48,SSW,195,3.0,5.0,27,0.00,,,0.00,meteohub,2013-01-19 22:45:00,
2013-01-19 16:50:00,65.1,30.4,29.48,SSW,202,3.0,6.0,27,0.00,,,0.00,meteohub,2013-01-19 22:50:00,
2013-01-19 16:55:00,64.6,30.7,29.48,SSW,193,3.0,6.0,28,0.00,,,0.00,meteohub,2013-01-19 22:55:00,
2013-01-19 17:00:00,64.2,31.3,29.48,SSW,196,3.0,6.0,29,0.00,,,0.00,meteohub,2013-01-19 23:00:00,
2013-01-19 17:05:00,63.7,30.7,29.48,SW,216,0.0,5.0,29,0.00,,,0.00,meteohub,2013-01-19 23:05:00,
2013-01-19 17:10:00,63.3,31.3,29.48,SSW,196,4.0,5.0,30,0.00,,,0.00,meteohub,2013-01-19 23:10:00,
2013-01-19 17:16:00,63.0,31.8,29.51,SW,231,5.0,5.0,31,0.00,,,0.00,meteohub,2013-01-19 23:16:00,
2013-01-19 17:21:00,62.8,31.6,29.51,SW,218,0.0,5.0,31,0.00,,,0.00,meteohub,2013-01-19 23:21:00,
2013-01-19 17:26:00,62.6,31.5,29.51,WSW,240,4.0,6.0,31,0.00,,,0.00,meteohub,2013-01-19 23:26:00,
2013-01-19 17:32:00,62.2,32.0,29.48,SSW,213,0.0,6.0,32,0.00,,,0.00,meteohub,2013-01-19 23:32:00,
2013-01-19 17:37:00,62.1,31.8,29.48,South,176,4.0,5.0,32,0.00,,,0.00,meteohub,2013-01-19 23:37:00,
2013-01-19 17:42:00,61.9,32.5,29.48,SW,225,2.0,4.0,33,0.00,,,0.00,meteohub,2013-01-19 23:42:00,
2013-01-19 17:47:00,61.5,32.2,29.48,SW,216,3.0,4.0,33,0.00,,,0.00,meteohub,2013-01-19 23:47:00,
2013-01-19 17:52:00,61.2,32.5,29.48,SSE,154,0.0,5.0,34,0.00,,,0.00,meteohub,2013-01-19 23:52:00,
2013-01-19 17:57:00,61.0,32.4,29.48,SW,229,0.0,5.0,34,0.00,,,0.00,meteohub,2013-01-19 23:57:00,
2013-01-19 18:02:00,60.6,32.2,29.48,SSW,192,4.0,5.0,34,0.00,,,0.00,meteohub,2013-01-20 00:02:00,
2013-01-19 18:07:00,60.4,32.7,29.48,SW,232,4.0,5.0,35,0.00,,,0.00,meteohub,2013-01-20 00:07:00,
2013-01-19 18:13:00,60.3,32.5,29.48,SSW,207,3.0,5.0,35,0.00,,,0.00,meteohub,2013-01-20 00:13:00,
2013-01-19 18:18:00,59.9,32.2,29.51,SW,226,4.0,5.0,35,0.00,,,0.00,meteohub,2013-01-20 00:18:00,
2013-01-19 18:23:00,59.7,32.7,29.51,SSW,204,0.0,6.0,36,0.00,,,0.00,meteohub,2013-01-20 00:23:00,
2013-01-19 18:29:00,59.5,32.5,29.51,SW,221,0.0,6.0,36,0.00,,,0.00,meteohub,2013-01-20 00:29:00,
2013-01-19 18:34:00,59.4,32.4,29.51,SW,215,0.0,4.0,36,0.00,,,0.00,meteohub,2013-01-20 00:34:00,
2013-01-19 18:39:00,59.0,32.0,29.51,SW,232,0.0,4.0,36,0.00,,,0.00,meteohub,2013-01-20 00:39:00,
2013-01-19 18:44:00,58.6,31.8,29.51,SW,219,0.0,2.0,36,0.00,,,0.00,meteohub,2013-01-20 00:44:00,
2013-01-19 18:49:00,58.5,32.4,29.51,WSW,246,0.0,2.0,37,0.00,,,0.00,meteohub,2013-01-20 00:49:00,
2013-01-19 18:55:00,58.1,32.0,29.51,WSW,246,0.0,3.0,37,0.00,,,0.00,meteohub,2013-01-20 00:55:00,
2013-01-19 19:02:00,57.6,31.5,29.51,WSW,246,0.0,3.0,37,0.00,,,0.00,meteohub,2013-01-20 01:02:00,
2013-01-19 19:07:00,57.2,31.8,29.51,WSW,246,0.0,0.0,38,0.00,,,0.00,meteohub,2013-01-20 01:07:00,
2013-01-19 19:13:00,56.8,31.5,29.51,WSW,246,0.0,0.0,38,0.00,,,0.00,meteohub,2013-01-20 01:13:00,
2013-01-19 19:18:00,56.7,32.0,29.51,WSW,246,0.0,0.0,39,0.00,,,0.00,meteohub,2013-01-20 01:18:00,
2013-01-19 19:23:00,56.1,31.5,29.51,WSW,246,0.0,0.0,39,0.00,,,0.00,meteohub,2013-01-20 01:23:00,
2013-01-19 19:29:00,55.6,31.1,29.54,WSW,246,0.0,0.0,39,0.00,,,0.00,meteohub,2013-01-20 01:29:00,
2013-01-19 19:34:00,55.0,31.1,29.54,WSW,246,0.0,0.0,40,0.00,,,0.00,meteohub,2013-01-20 01:34:00,
2013-01-19 19:40:00,54.7,31.5,29.54,WSW,246,0.0,0.0,41,0.00,,,0.00,meteohub,2013-01-20 01:40:00,
2013-01-19 19:45:00,54.5,31.8,29.54,WSW,246,0.0,0.0,42,0.00,,,0.00,meteohub,2013-01-20 01:45:00,
2013-01-19 19:51:00,54.1,31.5,29.54,WSW,246,0.0,0.0,42,0.00,,,0.00,meteohub,2013-01-20 01:51:00,
2013-01-19 19:56:00,53.8,31.8,29.54,WSW,246,0.0,0.0,43,0.00,,,0.00,meteohub,2013-01-20 01:56:00,
2013-01-19 20:01:00,53.4,32.0,29.54,WSW,246,0.0,0.0,44,0.00,,,0.00,meteohub,2013-01-20 02:01:00,
2013-01-19 20:06:00,53.2,31.8,29.54,WSW,246,0.0,0.0,44,0.00,,,0.00,meteohub,2013-01-20 02:06:00,
2013-01-19 20:12:00,53.1,32.4,29.54,WSW,246,0.0,0.0,45,0.00,,,0.00,meteohub,2013-01-20 02:12:00,
2013-01-19 20:17:00,53.1,32.9,29.54,WSW,246,0.0,0.0,46,0.00,,,0.00,meteohub,2013-01-20 02:17:00,
2013-01-19 20:22:00,52.9,32.7,29.54,WSW,246,0.0,0.0,46,0.00,,,0.00,meteohub,2013-01-20 02:22:00,
2013-01-19 20:28:00,52.3,32.2,29.54,WSW,246,0.0,0.0,46,0.00,,,0.00,meteohub,2013-01-20 02:28:00,
2013-01-19 20:33:00,52.2,32.0,29.54,WSW,246,0.0,0.0,46,0.00,,,0.00,meteohub,2013-01-20 02:33:00,
2013-01-19 20:38:00,51.6,32.0,29.54,WSW,246,0.0,0.0,47,0.00,,,0.00,meteohub,2013-01-20 02:38:00,
2013-01-19 20:44:00,51.3,31.6,29.54,WSW,246,0.0,0.0,47,0.00,,,0.00,meteohub,2013-01-20 02:44:00,
2013-01-19 20:49:00,50.7,31.8,29.54,WSW,246,0.0,0.0,48,0.00,,,0.00,meteohub,2013-01-20 02:49:00,
2013-01-19 20:54:00,50.4,31.5,29.54,WSW,246,0.0,0.0,48,0.00,,,0.00,meteohub,2013-01-20 02:54:00,
2013-01-19 20:59:00,50.0,31.1,29.54,WSW,246,0.0,0.0,48,0.00,,,0.00,meteohub,2013-01-20 02:59:00,
2013-01-19 21:05:00,49.6,31.3,29.54,WSW,246,0.0,0.0,49,0.00,,,0.00,meteohub,2013-01-20 03:05:00,
2013-01-19 21:10:00,49.3,31.5,29.54,WSW,246,0.0,0.0,50,0.00,,,0.00,meteohub,2013-01-20 03:10:00,
2013-01-19 21:15:00,48.9,31.1,29.54,WSW,246,0.0,0.0,50,0.00,,,0.00,meteohub,2013-01-20 03:15:00,
2013-01-19 21:20:00,48.7,31.5,29.54,WSW,246,0.0,0.0,51,0.00,,,0.00,meteohub,2013-01-20 03:20:00,
2013-01-19 21:25:00,48.6,31.3,29.54,WSW,246,0.0,0.0,51,0.00,,,0.00,meteohub,2013-01-20 03:25:00,
2013-01-19 21:31:00,48.2,31.5,29.54,WSW,246,0.0,0.0,52,0.00,,,0.00,meteohub,2013-01-20 03:31:00,
2013-01-19 21:36:00,48.0,31.6,29.54,WSW,246,0.0,0.0,53,0.00,,,0.00,meteohub,2013-01-20 03:36:00,
2013-01-19 21:41:00,47.8,31.5,29.54,WSW,246,0.0,0.0,53,0.00,,,0.00,meteohub,2013-01-20 03:41:00,
2013-01-19 21:46:00,47.7,31.3,29.54,WSW,246,0.0,0.0,53,0.00,,,0.00,meteohub,2013-01-20 03:46:00,
2013-01-19 21:52:00,47.5,31.6,29.54,WSW,246,0.0,0.0,54,0.00,,,0.00,meteohub,2013-01-20 03:52:00,
2013-01-19 21:57:00,47.3,31.5,29.54,WSW,246,0.0,0.0,54,0.00,,,0.00,meteohub,2013-01-20 03:57:00,
2013-01-19 22:02:00,47.1,31.8,29.54,WSW,246,0.0,0.0,55,0.00,,,0.00,meteohub,2013-01-20 04:02:00,
2013-01-19 22:07:00,47.3,32.0,29.54,WSW,246,0.0,0.0,55,0.00,,,0.00,meteohub,2013-01-20 04:07:00,
2013-01-19 22:13:00,47.3,32.4,29.54,WSW,246,0.0,0.0,56,0.00,,,0.00,meteohub,2013-01-20 04:13:00,
2013-01-19 22:18:00,47.1,32.2,29.54,WSW,246,0.0,0.0,56,0.00,,,0.00,meteohub,2013-01-20 04:18:00,
2013-01-19 22:23:00,47.1,32.7,29.54,WSW,246,0.0,0.0,57,0.00,,,0.00,meteohub,2013-01-20 04:23:00,
2013-01-19 22:29:00,46.9,32.5,29.54,WSW,246,0.0,0.0,57,0.00,,,0.00,meteohub,2013-01-20 04:29:00,
2013-01-19 22:34:00,46.8,32.7,29.54,WSW,246,0.0,0.0,58,0.00,,,0.00,meteohub,2013-01-20 04:34:00,
2013-01-19 22:39:00,46.6,32.5,29.54,WSW,246,0.0,0.0,58,0.00,,,0.00,meteohub,2013-01-20 04:39:00,
2013-01-19 22:45:00,46.4,32.4,29.54,WSW,246,0.0,0.0,58,0.00,,,0.00,meteohub,2013-01-20 04:45:00,
2013-01-19 22:50:00,46.2,32.7,29.54,WSW,246,0.0,0.0,59,0.00,,,0.00,meteohub,2013-01-20 04:50:00,
2013-01-19 22:55:00,46.0,32.5,29.54,WSW,246,0.0,0.0,59,0.00,,,0.00,meteohub,2013-01-20 04:55:00,
2013-01-19 23:00:00,46.0,32.9,29.57,WSW,246,0.0,0.0,60,0.00,,,0.00,meteohub,2013-01-20 05:00:00,
2013-01-19 23:01:00,46.0,32.9,29.57,WSW,246,0.0,0.0,60,0.00,,,0.00,meteohub,2013-01-20 05:01:00,
2013-01-19 23:03:00,45.9,32.7,29.57,WSW,246,0.0,0.0,60,0.00,,,0.00,meteohub,2013-01-20 05:03:00,
2013-01-19 23:04:00,45.9,32.7,29.57,WSW,246,0.0,0.0,60,0.00,,,0.00,meteohub,2013-01-20 05:04:00,
2013-01-19 23:09:00,45.9,32.7,29.57,WSW,246,0.0,0.0,60,0.00,,,0.00,meteohub,2013-01-20 05:09:00,
2013-01-19 23:14:00,45.5,32.4,29.57,WSW,246,0.0,0.0,60,0.00,,,0.00,meteohub,2013-01-20 05:14:00,
2013-01-19 23:20:00,45.5,32.9,29.57,WSW,246,0.0,0.0,61,0.00,,,0.00,meteohub,2013-01-20 05:20:00,
2013-01-19 23:25:00,45.3,32.7,29.57,WSW,246,0.0,0.0,61,0.00,,,0.00,meteohub,2013-01-20 05:25:00,
2013-01-19 23:30:00,45.1,32.9,29.57,WSW,246,0.0,0.0,62,0.00,,,0.00,meteohub,2013-01-20 05:30:00,
2013-01-19 23:35:00,45.0,32.7,29.57,WSW,246,0.0,0.0,62,0.00,,,0.00,meteohub,2013-01-20 05:35:00,
2013-01-19 23:40:00,44.8,32.5,29.57,WSW,246,0.0,0.0,62,0.00,,,0.00,meteohub,2013-01-20 05:40:00,
2013-01-19 23:45:00,44.6,32.4,29.57,WSW,246,0.0,0.0,62,0.00,,,0.00,meteohub,2013-01-20 05:45:00,
2013-01-19 23:50:00,44.4,32.5,29.57,WSW,246,0.0,0.0,63,0.00,,,0.00,meteohub,2013-01-20 05:50:00,
2013-01-19 23:55:00,44.2,32.4,29.57,WSW,246,0.0,0.0,63,0.00,,,0.00,meteohub,2013-01-20 05:55:00,